Weather History for HECA - October, 2012

Change the Weather History Date:

Friday, October 19, 2012

  Actual Average Record
Temperature  
Mean Temperature 80 °F -  
Max Temperature 89 °F 77 °F - ()
Min Temperature 71 °F 60 °F - ()
Cooling Degree Days 15    
Growing Degree Days 30 (Base 50)    
Moisture  
Dew Point 63 °F    
Average Humidity 63    
Maximum Humidity 100    
Minimum Humidity 27    
Precipitation  
Precipitation 0.00 in 0.00 in - ()
Sea Level Pressure  
Sea Level Pressure 29.90 in    
Wind  
Wind Speed 10 mph ()    
Max Wind Speed 16 mph    
Max Gust Speed -    
Visibility 3.1 miles    
Events      
T = Trace of Precipitation, MM = Missing Value Source: Averaged Metar Reports

Daily Weather History Graph

Daily Weather History Graph

Search for Another Location

Airport or City:

Trip Planner

Search our weather history database for the weather conditions in past years. The results will help you decide how hot, cold, wet, or windy it might be!

Date:

Astronomy

Oct. 19, 2012 Rise Set
Actual Time 5:59 AM EET 5:18 PM EET
Civil Twilight 5:34 AM EET 5:43 PM EET
Nautical Twilight 5:06 AM EET 6:11 PM EET
Astronomical Twilight 4:39 AM EET 6:38 PM EET
Moon 10:07 AM EET (10/19) 8:49 PM EET (10/19)
Length of Visible Light 12h 08m
Length of Day
11h 19m
Waxing Crescent, 21% of the Moon is Illuminated
Oct 19
Waxing Crescent
Oct 22
First Quarter
Oct 29
Full
Nov 7
Last Quarter
Nov 14
New

Hourly Weather History & Observations

Time (EET) Temp. Heat Index Dew Point Humidity Pressure Visibility Wind Dir Wind Speed Gust Speed Precip Events Conditions
12:00 AM 73.4 °F - 68.0 °F 83% 29.92 in - NNE 9.2 mph - N/A   Clear
12:30 AM 73.4 °F - 68.0 °F 83% 29.92 in - NNE 9.2 mph - N/A   Clear
1:00 AM 71.6 °F - 68.0 °F 88% 29.92 in - NE 10.4 mph - N/A   Clear
1:30 AM 71.6 °F - 68.0 °F 88% 29.92 in - NE 10.4 mph - N/A   Clear
2:00 AM 73 °F - 70 °F 89% 29.91 in 6 mi NE 10.4 mph - -   Partly Cloudy
2:00 AM 73.4 °F - 69.8 °F 88% 29.89 in - NE 10.4 mph - N/A   Clear
2:30 AM 73.4 °F - 69.8 °F 88% 29.89 in - NE 10.4 mph - N/A   Clear
2:40 AM 73.4 °F - 69.8 °F 88% 29.89 in 2.5 mi NE 10.4 mph - N/A   Mist
3:00 AM 71.6 °F - 69.8 °F 94% 29.89 in 1.2 mi NNE 10.4 mph - N/A   Mist
3:30 AM 71.6 °F - 69.8 °F 94% 29.89 in 1.2 mi NNE 10.4 mph - N/A   Mist
4:00 AM 71.6 °F - 71.6 °F 100% 29.89 in 1.2 mi NNE 10.4 mph - N/A   Mist
4:30 AM 71.6 °F - 71.6 °F 100% 29.89 in 1.2 mi NNE 10.4 mph - N/A   Mist
5:00 AM 71.6 °F - 69.8 °F 94% 29.89 in 1.2 mi NE 9.2 mph - N/A   Mist
5:30 AM 71.6 °F - 69.8 °F 94% 29.89 in 1.2 mi NE 9.2 mph - N/A   Mist
6:00 AM 71.6 °F - 71.6 °F 100% 29.89 in 1.2 mi NE 12.7 mph - N/A   Mist
6:30 AM 71.6 °F - 71.6 °F 100% 29.89 in 1.2 mi NE 12.7 mph - N/A   Mist
7:00 AM 71.6 °F - 71.6 °F 100% 29.92 in 1.2 mi NE 16.1 mph - N/A   Mist
7:30 AM 73.4 °F - 71.6 °F 94% 29.92 in 1.2 mi NE 12.7 mph - N/A   Mist
8:00 AM 74 °F - 70 °F 83% 29.92 in 2 mi NE 13.8 mph - -   Mist
8:00 AM 75.2 °F - 69.8 °F 83% 29.92 in 2.5 mi NE 13.8 mph - N/A   Mist
8:30 AM 75.2 °F - 69.8 °F 83% 29.92 in 3.7 mi NE 13.8 mph - N/A   Unknown
9:00 AM 77.0 °F - 69.8 °F 78% 29.92 in - NNE 12.7 mph - N/A   Clear
9:30 AM 77.0 °F - 68.0 °F 74% 29.92 in - North 8.1 mph - N/A   Clear
10:00 AM 80.6 °F 82.7 °F 66.2 °F 61% 29.92 in - NNE 12.7 mph - N/A   Clear
10:30 AM 80.6 °F 83.2 °F 68.0 °F 65% 29.92 in - North 9.2 mph - N/A   Clear
11:00 AM 82.4 °F 83.4 °F 62.6 °F 51% 29.92 in 6.2 mi NE 10.4 mph - N/A   Partly Cloudy
11:30 AM 84.2 °F 83.8 °F 59.0 °F 42% 29.92 in 6.2 mi North 11.5 mph - N/A   Partly Cloudy
12:00 PM 84.2 °F 83.8 °F 59.0 °F 42% 29.89 in 6.2 mi North 11.5 mph - N/A   Partly Cloudy
12:30 PM 86.0 °F 85.4 °F 59.0 °F 40% 29.89 in 6.2 mi North 11.5 mph - N/A   Partly Cloudy
1:00 PM 86.0 °F 84.5 °F 55.4 °F 35% 29.89 in - North 11.5 mph - N/A   Clear
1:30 PM 86.0 °F 84.5 °F 55.4 °F 35% 29.89 in - North 11.5 mph - N/A   Clear
2:00 PM 89 °F - 59 °F 27% 29.87 in 6 mi NNE 11.5 mph - -  
2:00 PM 89.6 °F 88.9 °F 59.0 °F 36% 29.89 in - NNE 11.5 mph - N/A   Clear
2:30 PM 87.8 °F 85.7 °F 53.6 °F 31% 29.86 in - NNE 11.5 mph - N/A   Clear
3:00 PM 89.6 °F 87.3 °F 53.6 °F 29% 29.86 in - NNE 11.5 mph - N/A   Clear
3:30 PM 89.6 °F 87.7 °F 55.4 °F 31% 29.86 in - North 11.5 mph - N/A   Clear
4:00 PM 87.8 °F 86.1 °F 55.4 °F 33% 29.86 in - North 11.5 mph - N/A   Clear
4:30 PM 87.8 °F 85.7 °F 53.6 °F 31% 29.86 in - North 11.5 mph - N/A   Clear
5:00 PM 87.8 °F 86.1 °F 55.4 °F 33% 29.86 in - North 12.7 mph - N/A   Clear
5:30 PM 86.0 °F 84.5 °F 55.4 °F 35% 29.86 in - North 12.7 mph - N/A   Clear
6:00 PM 86.0 °F 84.5 °F 55.4 °F 35% 29.86 in - North 12.7 mph - N/A   Clear
6:30 PM 86.0 °F 84.5 °F 55.4 °F 35% 29.86 in - North 12.7 mph - N/A   Clear
7:00 PM 82.4 °F 82.0 °F 57.2 °F 42% 29.89 in - NNE 13.8 mph - N/A   Clear
7:30 PM 78.8 °F - 55.4 °F 44% 29.89 in - NNE 13.8 mph - N/A   Clear
8:00 PM 81 °F - 57 °F 33% 29.89 in 6 mi NNE 10.4 mph - -  
8:00 PM 80.6 °F 80.8 °F 57.2 °F 45% 29.89 in - NNE 10.4 mph - N/A   Clear
9:00 PM 77.0 °F - 55.4 °F 47% 29.92 in - NE 9.2 mph - N/A   Clear
9:30 PM 77.0 °F - 55.4 °F 47% 29.92 in - NE 9.2 mph - N/A   Clear
10:00 PM 75.2 °F - 57.2 °F 53% 29.92 in - NNE 8.1 mph - N/A   Clear
10:30 PM 75.2 °F - 59.0 °F 57% 29.92 in - NE 6.9 mph - N/A   Clear
11:00 PM 73.4 °F - 59.0 °F 61% 29.89 in - NE 5.8 mph - N/A   Clear
11:30 PM 73.4 °F - 59.0 °F 61% 29.89 in - NE 5.8 mph - N/A   Clear